Flag for U.S.A. Weather past 2 weeks in Fort Worth, Texas, U.S.A.

Now
100 °F

Sunny.


Feels Like: 100 °F
Forecast: 76 / 99 °F
Wind: 12 mph from East

Location: Meacham International Airport

Current Time: Aug 3, 2015 at 4:48:33 PM

Latest Report: Aug 3, 2015 at 3:53 PM


Visibility: 10 mi

Pressure: 29.85 "Hg

Humidity: 25%

Dew point: 58 °F

Location of Fort WorthLocation

Historic Weather in Fort Worth — Graph

°F

Fort Worth temperature yesterday

Maximum temperature yesterday: 99 °F (at 3:53 PM)
Minimum temperature yesterday: 82 °F (at 5:53 AM)
Average temperature yesterday: 90 °F

Past Weeks' High & Low Weather Summary

 TemperatureHumidityPressure
High103 °F (Jul 30, 2:53 PM)77% (Jul 20, 6:53 AM)30.07 "Hg (Jul 20, 6:53 AM)
Low78 °F (Jul 25, 6:53 AM)20% (Jul 25, 3:53 PM)29.75 "Hg (Jul 21, 6:53 PM)
Average90 °F46%29.90 "Hg
* Reported Jul 19 2:53 PM — Aug 3 2:53 PM, Fort Worth, Weather by CustomWeather, © 2015

Note: Actual official high and low records may vary slightly from our data, if they occured in-between our weather recording intervals... More about our weather records

Advertising

Fort Worth weather history for previous 24 hours

 ConditionsComfort  
Time TempWeatherWind HumidityBarometerVisibility
2:53 PM
Mon, Aug 3
100 °FSunny.5 mph24%29.85 "Hg10 mi
1:53 PM100 °FSunny.6 mph24%29.87 "Hg10 mi
12:53 PM97 °FSunny.3 mph27%29.88 "Hg10 mi
11:53 AM95 °FPassing clouds.No wind30%29.90 "Hg10 mi
10:53 AM92 °FScattered clouds.5 mph36%29.90 "Hg10 mi
9:53 AM89 °FScattered clouds.7 mph39%29.90 "Hg10 mi
8:53 AM84 °FSunny.No wind45%29.90 "Hg10 mi
7:53 AM82 °FSunny.No wind48%29.88 "Hg10 mi
6:53 AM79 °FClear.No wind50%29.87 "Hg10 mi
5:53 AM79 °FClear.7 mph50%29.85 "Hg10 mi
4:53 AM80 °FClear.No wind47%29.85 "Hg10 mi
3:53 AM81 °FClear.6 mph45%29.84 "Hg10 mi
2:53 AM83 °FClear.5 mph41%29.84 "Hg10 mi
1:53 AM84 °FClear.3 mph38%29.85 "Hg10 mi
12:53 AM84 °FClear.6 mph38%29.85 "Hg10 mi
11:53 PM
Sun, Aug 2
86 °FClear.7 mph36%29.85 "Hg10 mi
10:53 PM88 °FClear.8 mph34%29.85 "Hg10 mi
9:53 PM90 °FClear.8 mph31%29.83 "Hg10 mi
8:53 PM92 °FSunny.10 mph27%29.81 "Hg10 mi
7:53 PM95 °FSunny.9 mph24%29.81 "Hg10 mi
6:53 PM97 °FSunny.12 mph24%29.81 "Hg10 mi
5:53 PM97 °FSunny.5 mph24%29.83 "Hg10 mi
4:53 PM98 °FSunny.7 mph23%29.84 "Hg10 mi
Weather by CustomWeather, © 2015

See weather overviewHow to use our weather pages